Theta_e
318 314 311 313 316 316 315 313 313 316 321 320 319 320 321 325 327 328 330 331 332 333 336 337 335 334 333 332 332 329 330 329 329 328 325 326 327 330 329 331 332 331 330 330
314 312 314 315 316 315 315 314 314 317 321 320 318 317 320 324 327 330 330 330 330 332 335 338 335 334 333 332 331 328 326 326 327 328 328 327 329 328 329 331 333 333 332 331
311 313 315 315 316 315 315 314 314 313 318 321 317 315 317 322 325 328 331 333 333 333 334 337 339 337 335 333 331 331 329 328 329 331 330 330 331 331 328 329 330 332 332 332
314 316 313 314 313 316 312 317 315 314 313 308 317 307 315 319 320 324 327 328 329 330 331 332 334 340 337 334 334 336 337 335 330 333 331 331 326 324 326 328 331 332 332 332
312 313 313 312 313 317 315 319 317 316 313 314 312 310 313 318 316 322 325 327 328 329 331 332 334 336 340 336 333 338 340 336 334 333 333 330 330 329 329 329 330 333 333 333
315 317 315 314 317 319 320 319 317 316 313 305 310 310 310 314 317 321 325 327 328 329 330 334 336 337 337 336 334 339 339 338 337 335 333 333 331 330 328 329 326 327 329 331
312 313 315 315 314 320 319 314 304 303 304 302 312 310 312 318 321 323 323 326 328 329 330 333 333 334 334 334 335 338 340 339 338 336 334 334 333 332 331 329 328 328 327 329
307 305 312 317 316 315 314 313 307 298 300 302 311 305 311 320 324 326 327 327 329 328 330 334 334 335 334 335 336 337 341 339 338 337 336 336 334 330 331 331 329 328 328 329
307 306 315 318 319 319 315 312 317 310 311 305 307 311 317 320 322 324 325 326 327 330 331 333 335 336 336 337 338 338 337 337 339 338 337 336 335 334 331 333 335 330 333 330
312 306 312 315 319 320 317 319 310 312 301 298 303 307 309 315 318 323 324 324 326 328 329 332 335 336 337 338 340 340 339 336 338 339 338 337 336 335 334 335 335 334 335 335
316 313 310 314 313 312 315 313 314 314 311 302 300 305 318 318 322 323 324 325 325 324 327 332 334 336 337 337 338 341 339 337 337 339 339 337 336 335 335 334 334 334 335 335
315 315 307 308 316 318 317 315 314 308 305 310 308 308 321 323 323 325 324 325 324 324 327 331 334 336 337 337 338 339 339 338 341 341 337 337 337 336 336 335 335 336 335 335
317 314 307 310 315 317 314 316 317 316 316 309 304 307 320 324 324 326 324 325 322 324 327 329 333 336 336 337 338 337 338 338 340 340 337 335 335 335 335 336 336 336 335 334
323 318 310 304 308 312 309 311 315 315 308 309 308 311 316 321 323 325 326 325 322 325 327 330 332 333 335 337 337 337 338 339 339 339 335 334 333 332 334 334 334 334 334 333
324 311 313 311 312 312 310 310 311 311 312 308 311 312 317 323 324 324 326 324 321 324 326 329 331 333 335 336 337 337 338 339 338 334 332 331 332 333 333 333 333 333 333 333
323 314 315 310 312 313 310 311 312 312 313 314 314 315 324 327 326 325 324 323 322 323 326 329 332 333 335 335 334 335 336 336 335 332 330 329 332 331 332 332 332 334 333 331
320 319 314 307 311 311 308 310 311 314 317 318 312 319 325 324 324 325 325 323 323 325 326 328 331 334 336 336 336 334 335 334 332 330 331 330 331 330 333 333 332 329 329 329
319 319 316 309 312 302 313 321 320 317 319 321 321 321 323 324 326 325 326 325 325 327 329 330 332 335 336 336 335 333 333 332 332 331 330 331 332 330 330 328 326 327 328 326
325 320 311 307 307 309 311 318 318 317 316 321 320 322 324 326 327 326 328 329 329 330 334 334 334 336 336 334 334 333 331 330 331 330 329 328 328 326 323 322 324 326 325 323
321 323 315 312 303 300 315 320 323 322 312 324 325 325 326 326 316 323 331 331 330 334 334 333 334 335 335 334 335 333 330 331 328 327 326 325 322 320 321 322 323 325 325 322
314 315 310 309 306 311 319 322 324 311 316 328 329 329 328 324 326 333 333 332 332 334 334 335 335 334 335 335 335 331 331 329 328 325 322 320 321 321 322 323 325 324 323 322
311 311 312 312 308 304 323 323 315 326 332 331 330 330 329 330 331 331 331 331 333 333 334 334 333 333 336 335 333 330 329 327 324 320 318 319 321 319 320 321 322 323 322 319
313 319 316 314 315 328 329 327 330 332 331 330 331 332 331 330 330 330 330 332 334 334 335 333 332 332 333 332 332 329 327 324 320 318 318 319 320 321 322 322 322 318 319 314
320 324 318 318 320 322 325 327 330 330 330 332 332 332 332 331 330 332 332 332 334 333 331 332 330 328 326 328 328 327 322 319 319 318 318 320 320 320 322 319 319 317 313 312
322 324 319 319 321 323 324 328 329 329 330 330 330 330 331 331 332 332 329 332 335 332 332 330 328 327 323 326 324 321 318 318 318 318 319 319 318 319 318 318 317 316 316 309
322 318 316 313 326 324 323 329 330 329 328 330 331 330 331 333 332 331 330 333 333 332 331 329 327 324 320 320 318 318 318 317 318 317 315 316 316 316 316 315 316 300 301 298
Wind_Speed
0 11 11 13 9 9 8 7 8 7 6 8 9 10 10 10 5 5 9 9 10 11 11 8 7 11 13 13 13 9 6 5 4 4 4 4 4 3 5 4 5 5 5 4
9 1 7 7 6 4 5 8 10 1 6 7 10 8 7 7 7 5 4 3 5 8 10 10 11 12 14 15 12 11 12 10 6 5 4 4 3 4 5 4 4 6 6 6
6 6 5 4 1 9 7 10 9 9 4 2 14 9 8 4 2 5 5 2 2 5 7 7 10 16 17 18 16 15 12 8 8 9 5 5 4 6 5 5 5 5 6 6
6 2 5 7 4 10 8 8 4 4 10 9 7 4 12 8 3 9 11 9 7 7 8 9 9 14 17 18 16 15 11 10 8 9 6 5 5 5 4 4 3 5 4 6
3 5 8 9 8 7 7 4 6 4 4 8 11 9 9 5 10 11 9 9 9 9 10 11 10 7 16 15 15 11 10 9 9 8 6 5 5 3 3 3 2 3 4 6
13 1 5 7 1 4 3 8 5 6 5 1 7 8 9 10 9 9 8 10 9 10 11 9 9 9 8 12 15 10 10 10 10 9 7 7 4 4 4 3 4 3 3 3
13 15 3 5 9 6 8 7 4 5 6 8 4 9 9 9 7 6 5 9 10 10 10 8 7 7 7 10 12 12 10 9 10 9 8 7 5 4 5 4 2 5 3 3
10 13 12 7 7 8 3 7 6 10 10 12 6 6 7 4 5 4 3 9 10 11 12 10 9 6 7 8 11 12 9 8 10 9 8 6 6 5 4 4 5 4 4 3
6 11 7 3 3 6 6 5 5 7 7 8 6 7 7 4 4 3 5 9 10 10 10 9 9 6 6 7 9 11 7 7 8 9 8 7 6 6 4 4 5 3 3 4
4 6 3 5 4 3 7 3 6 5 6 13 12 10 9 10 7 5 5 8 8 7 8 8 7 6 5 7 9 10 7 5 6 8 9 7 6 7 7 6 7 6 6 7
6 6 6 5 8 6 5 9 3 4 5 9 9 11 8 7 7 6 6 8 8 8 10 7 6 5 5 5 9 8 7 4 5 6 7 6 6 7 7 7 7 7 7 8
6 5 9 4 4 4 5 5 4 5 8 4 6 3 6 5 5 3 5 6 7 6 6 5 6 2 4 5 7 8 8 6 2 2 5 6 6 7 7 7 8 8 8 8
8 4 7 9 7 5 4 2 2 2 4 10 8 6 2 4 2 2 4 4 5 5 7 6 4 2 3 5 6 7 8 9 7 3 4 4 5 5 5 6 6 7 7 9
1 1 5 8 8 5 3 2 1 4 7 8 8 14 13 10 4 1 0 2 5 7 7 8 6 5 5 5 6 6 6 6 6 5 3 2 2 0 2 3 5 5 6 7
3 3 1 3 2 3 4 7 4 7 5 7 13 13 12 10 7 3 2 2 3 7 7 7 7 6 7 6 6 5 4 4 4 4 3 3 3 3 3 3 4 5 5 5
1 3 3 4 3 6 8 6 5 6 7 8 9 8 9 7 4 3 0 3 2 4 5 6 8 8 7 7 5 5 5 5 4 3 3 4 2 4 3 3 4 5 6 6
2 2 5 4 1 7 9 2 6 7 6 6 10 14 11 8 5 5 2 4 3 1 3 3 7 8 7 7 6 6 7 6 4 3 1 3 3 2 4 5 6 6 6 6
2 3 4 8 5 10 7 5 5 7 8 5 7 9 8 9 7 4 8 8 5 3 1 3 7 8 8 7 8 7 7 5 3 1 4 4 5 6 6 6 6 5 5 5
2 5 5 8 9 5 7 4 4 6 10 5 6 9 11 9 9 6 5 5 5 3 0 2 5 7 8 9 8 7 5 4 3 5 5 6 6 5 5 6 5 4 3 4
3 4 7 2 7 6 8 4 2 2 7 9 8 9 10 10 10 7 7 8 5 2 4 6 7 7 7 8 7 6 5 4 4 5 5 6 6 5 5 5 4 3 2 3
4 4 7 3 6 1 5 2 1 7 7 10 9 9 9 10 10 9 9 10 9 7 5 7 9 7 6 6 6 5 4 4 4 4 4 5 5 4 4 3 3 3 1 2
4 4 3 2 4 4 3 4 5 6 7 8 10 10 12 12 11 11 11 12 7 6 7 9 8 8 7 6 6 5 4 4 4 3 4 5 3 2 3 4 3 1 3 1
4 4 5 4 6 5 1 5 5 6 8 8 10 11 10 12 13 15 14 12 9 7 7 8 7 7 6 5 4 5 4 3 3 3 4 3 1 2 3 3 2 2 2 3
5 3 5 4 4 3 5 3 2 3 6 9 9 10 9 12 12 12 9 8 4 5 8 7 7 6 6 5 5 5 5 3 3 3 2 1 2 2 2 2 2 2 3 4
6 6 6 9 12 6 4 2 4 5 7 7 8 7 8 9 11 9 6 3 2 6 7 5 5 9 9 6 6 5 5 4 4 3 2 2 3 5 3 3 4 3 3 5
6 9 7 8 8 5 6 4 7 6 5 7 8 8 8 7 10 7 5 3 4 7 10 9 8 9 5 5 6 5 4 5 5 4 5 1 3 4 3 3 6 7 6 6
Wind_Direction
12 283 24 348 341 325 321 328 342 22 36 301 15 339 356 25 27 233 251 253 254 244 242 223 205 194 166 164 151 142 143 161 187 228 258 237 264 262 247 254 259 269 287 299
227 270 11 338 340 299 286 303 30 101 37 301 348 336 36 24 27 17 338 270 267 261 258 227 193 195 185 178 154 171 175 171 180 172 206 262 301 281 299 289 272 265 265 281
297 28 311 307 74 294 77 355 353 350 327 215 320 131 70 74 23 50 78 84 303 286 291 278 226 192 192 186 178 184 181 168 176 178 191 216 247 235 236 224 235 230 247 272
288 26 299 310 41 338 3 8 327 337 331 18 335 56 70 23 40 78 62 55 41 17 6 350 317 195 195 187 197 191 168 171 181 184 194 222 287 305 353 284 322 293 262 278
245 280 337 294 20 330 34 324 343 326 344 295 27 284 59 66 42 62 57 48 37 19 12 6 342 305 171 182 201 194 174 171 174 187 220 210 233 266 286 296 296 268 273 276
274 40 284 354 341 329 137 254 245 244 263 21 29 311 75 35 17 30 43 50 39 26 34 36 31 62 139 178 197 178 177 179 186 190 197 222 240 266 301 318 312 290 296 302
222 239 201 244 242 176 242 292 303 342 350 28 70 269 36 30 28 18 34 47 46 34 43 51 68 101 139 176 191 189 189 187 194 189 202 212 224 239 257 272 310 323 316 325
228 219 201 167 265 331 28 324 349 327 349 332 148 355 38 23 51 84 78 65 49 41 53 67 76 93 140 160 180 199 190 192 195 198 211 210 213 232 242 214 316 310 330 316
228 246 118 54 307 301 127 266 22 286 211 275 354 19 150 79 96 95 81 60 49 45 50 72 90 96 114 154 181 197 181 198 201 202 209 211 216 237 274 276 260 279 296 287
217 272 174 110 196 122 294 89 238 224 320 319 342 294 38 1 1 26 74 52 49 42 49 56 81 98 123 156 172 187 178 199 216 210 211 211 222 235 244 252 261 282 281 272
249 257 137 202 212 335 182 206 244 299 285 321 318 345 55 359 2 9 41 48 39 28 39 34 67 99 130 165 171 174 190 154 167 191 212 223 236 243 250 259 265 268 272 276
183 245 242 271 65 316 294 341 289 300 329 355 280 319 50 12 12 29 44 60 47 34 50 49 60 68 121 165 169 185 198 211 151 173 222 229 245 252 260 267 270 269 273 282
173 199 204 174 169 172 258 98 18 301 268 285 312 355 93 42 340 80 24 64 89 54 44 55 87 84 133 154 175 184 207 225 239 246 226 198 234 255 270 272 268 270 281 287
212 110 321 344 22 0 250 189 307 299 282 347 311 345 340 26 15 68 27 101 57 74 59 57 84 103 102 127 151 163 187 206 203 228 196 160 196 160 277 270 274 291 302 310
287 137 228 71 62 260 307 303 247 262 303 296 339 329 2 9 347 4 19 89 180 103 87 75 105 103 111 118 138 137 148 165 168 172 189 165 188 248 283 305 319 331 340 354
56 166 243 185 214 265 289 303 237 275 285 283 316 335 13 359 313 272 69 199 238 89 86 110 116 116 123 129 131 121 123 122 146 195 191 212 292 302 337 5 16 19 30 25
296 150 240 266 241 290 259 199 288 301 282 330 316 352 337 334 335 318 303 279 9 218 126 136 128 131 142 147 134 130 125 138 185 221 228 338 349 10 26 35 38 39 44 56
275 269 284 279 278 263 68 48 340 302 304 299 299 341 338 323 331 348 14 358 326 309 156 162 133 139 142 137 122 141 141 155 179 39 34 31 20 28 40 49 53 57 62 71
323 257 262 266 265 306 229 69 357 349 314 30 340 343 340 340 312 161 32 31 349 333 216 146 141 132 141 141 149 146 133 140 116 56 34 31 30 25 42 63 66 57 84 93
131 228 255 193 282 285 59 75 11 308 249 26 346 323 336 328 302 73 1 336 302 271 206 161 143 147 153 150 142 141 138 115 82 61 49 36 34 50 62 67 60 84 103 64
216 242 263 239 280 94 77 103 220 251 41 341 344 322 307 296 313 315 317 336 303 252 208 169 162 165 157 154 149 135 134 104 81 70 62 70 75 80 72 73 104 129 58 20
274 272 180 238 262 253 78 170 289 16 322 326 313 313 300 299 303 296 306 316 310 264 200 199 163 150 152 162 155 142 114 101 87 79 89 92 89 356 94 126 138 108 336 38
228 343 351 292 12 47 354 312 324 306 301 322 317 315 311 302 305 313 312 311 319 291 179 181 163 151 147 157 150 137 124 129 109 117 115 115 104 121 151 170 188 196 167 337
177 184 264 291 141 321 324 319 290 303 310 318 318 308 299 301 313 318 320 326 306 143 160 157 155 150 155 169 131 119 142 135 156 144 145 199 214 171 209 217 198 349 9 356
22 164 273 269 266 282 137 26 1 333 312 329 328 306 299 300 306 313 329 343 156 158 147 178 176 169 163 165 129 163 154 168 172 173 208 231 181 231 176 295 1 359 75 9
186 263 245 296 11 321 316 356 334 326 339 341 331 327 311 296 300 308 313 315 199 180 170 174 180 167 181 152 160 165 177 200 184 193 210 235 230 209 237 241 187 186 134 169